Location: *
(44.1392°N, 4.8079°E)
Time: 21:04:27
(UTC+00:00)

Cosmos 1809 Rocket - Pass Details

Date: 21 June 2021
Orbit: 940 x 964 km, 82.5° (Epoch: 02 August)

Event Time Altitude Azimuth Distance (km) Brightness Sun altitude
Exits shadow 02:00:59 19° 186° (S) 2,130 5.8 -15.4°
Maximum altitude 02:05:39 89° 98° (E) 968 4.5 -14.9°
Drops below altitude 10° 02:11:53 10° 9° (N) 2,710 7.9 -14.3°
Sets 02:14:23 0° 9° (N) 3,662 8.7 -14.0°
